This is the latest recevied weather packets stored in our database for station/object N6GPM. If no packets are shown the sender has not sent any weather packets the latest 10 day(s).
| Time | Temp. | Humidity | Pressure | Rain* | Wind** | Luminosity | Snow |
|---|---|---|---|---|---|---|---|
| 1787617342 | 36.11° C | 19% | 1017 hPa | 0 mm | - | 304 W/m² | - |
| 1787617042 | 36.67° C | 19% | 1017.3 hPa | 0 mm | - | 325 W/m² | - |
| 1787616736 | 36.11° C | 19% | 1017 hPa | 0 mm | - | 346 W/m² | - |
| 1787616435 | 37.22° C | 20% | 1016.9 hPa | 0 mm | - | 366 W/m² | - |
| 1787616133 | 36.67° C | 19% | 1017.2 hPa | 0 mm | - | 386 W/m² | - |
| 1787615828 | 37.22° C | 17% | 1017 hPa | 0 mm | - | 408 W/m² | - |
| 1787615524 | 37.22° C | 19% | 1016.9 hPa | 0 mm | - | 426 W/m² | - |
| 1787615219 | 37.22° C | 20% | 1017 hPa | 0 mm | - | 448 W/m² | - |
| 1787614915 | 37.22° C | 20% | 1017.3 hPa | 0 mm | - | 474 W/m² | - |
| 1787614610 | 37.22° C | 20% | 1017.2 hPa | 0 mm | - | 413 W/m² | - |
| 1787614307 | 37.22° C | 21% | 1017 hPa | 0 mm | - | 511 W/m² | - |
| 1787614004 | 37.78° C | 21% | 1016.9 hPa | 0 mm | - | 532 W/m² | - |
| 1787613699 | 37.78° C | 21% | 1016.9 hPa | 0 mm | - | 557 W/m² | - |
| 1787613394 | 37.78° C | 21% | 1016.8 hPa | 0 mm | - | 575 W/m² | - |
| 1787613090 | 37.78° C | 22% | 1016.9 hPa | 0 mm | - | 593 W/m² | - |
| 1787612787 | 38.33° C | 22% | 1016.9 hPa | 0 mm | - | 611 W/m² | - |
| 1787612483 | 38.33° C | 22% | 1016.9 hPa | 0 mm | - | 632 W/m² | - |
| 1787612178 | 37.78° C | 22% | 1017.2 hPa | 0 mm | - | 647 W/m² | - |
| 1787611874 | 37.78° C | 22% | 1016.8 hPa | 0 mm | - | 668 W/m² | - |
| 1787611570 | 38.33° C | 21% | 1017 hPa | 0 mm | - | 683 W/m² | - |
| 1787611266 | 38.89° C | 21% | 1017.3 hPa | 0 mm | - | 700 W/m² | - |
| 1787610961 | 38.33° C | 21% | 1017.2 hPa | 0 mm | - | 715 W/m² | - |
| 1787610657 | 38.33° C | 21% | 1017.5 hPa | 0 mm | - | 732 W/m² | - |
| 1787610352 | 38.33° C | 22% | 1017.3 hPa | 0 mm | - | 747 W/m² | - |
| 1787610050 | 38.33° C | 22% | 1017.2 hPa | 0 mm | - | 764 W/m² | - |
* Rain latest hour (hover to see other rain measurements)
** Current wind speed in m/s (hover to see current wind gust speed)